Skip to main content.
NOAA NWS Hourly Roundups by Site

NOAA NWS Hourly Roundups by Site

Regional Weather Roundup for Omaha, NE

To Select Another Site Choose from List

Select Site:  

000
ASUS43 KOAX 181010
RWRNE

WEATHER ROUNDUP FOR NEBRASKA
NATIONAL WEATHER SERVICE OMAHA NE
500 AM CDT THU OCT 18 2018

NOTES: SATELLITE DATA IS BEING USED TO AUGMENT CLOUD COVER ABOVE
       12000 FEET.
       "FAIR" INDICATES FEW OR NO CLOUDS BELOW 12,000 FEET WITH NO
       SIGNIFICANT WEATHER AND/OR OBSTRUCTIONS TO VISIBILITY.


NEZ001>004-019>022-054>056-181100-
NEBRASKA PANHANDLE

CITY           SKY/WX    TMP DP  RH WIND       PRES   REMARKS
SCOTTSBLUFF    CLEAR     49  38  65 VRB7G18   30.25F
ALLIANCE       CLEAR     41  36  82 SE7       30.27F
CHADRON        PTCLDY    51  37  58 S10       30.21F
GORDON         FAIR      44  36  73 S6        30.26F
KIMBALL        CLEAR     39  34  81 S13       30.27F WCI  32
SIDNEY         CLEAR     39  35  86 S8        30.31F WCI  33
$$

NEZ057>060-069>072-079>082-181100-
SOUTHWEST NEBRASKA

CITY           SKY/WX    TMP DP  RH WIND       PRES   REMARKS
NORTH PLATTE   MOCLDY    48  39  71 S10       30.37F
IMPERIAL       MOCLDY    46  36  68 S9        30.35F
LEXINGTON      CLOUDY    48  40  73 S6        30.40S
MCCOOK         PTCLDY    48  39  71 SW8       30.39F
OGALLALA       PTCLDY    40  37  87 CALM      30.34F
$$

NEZ005>010-023>029-035>040-094-181100-
NORTH CENTRAL NEBRASKA

CITY           SKY/WX    TMP DP  RH WIND       PRES   REMARKS
VALENTINE      PTCLDY    45  36  70 SW9       30.30F
AINSWORTH      PTCLDY    44  37  76 S9        30.32F
BROKEN BOW     MOCLDY    45  37  73 SW3       30.37F
O`NEILL        CLEAR     44  37  77 SW7       30.35F
ORD            PTCLDY    41  35  79 SW3       30.37F
THEDFORD       MOCLDY    47  39  72 S6        30.35S
$$

NEZ041-046>049-061>064-073>077-083>087-181100-
SOUTH CENTRAL NEBRASKA

CITY           SKY/WX    TMP DP  RH WIND       PRES   REMARKS
GRAND ISLAND   CLEAR     45  37  73 S8        30.41S
AURORA         CLEAR     44  37  77 SW5       30.41S
HASTINGS       CLEAR     46  37  71 S6        30.42F
HEBRON         PTCLDY    43  38  82 CALM      30.44S
HOLDREGE       PTCLDY    46  40  80 SW5       30.41S
KEARNEY        CLEAR     46  37  71 SW8       30.41F
YORK           PTCLDY    41  37  87 SW7       30.42S
$$

NEZ011>018-030>034-042>045-181100-
NORTHEAST NEBRASKA

CITY           SKY/WX    TMP DP  RH WIND       PRES   REMARKS
NORFOLK        CLEAR     42  37  82 CALM      30.38S
ALBION         CLEAR     47  38  70 SW5       30.39S
BLAIR          CLEAR     43  39  85 S5        30.41S
COLUMBUS       CLEAR     32  30  92 CALM      30.41F
FREMONT        CLEAR     44  39  83 CALM      30.42S
TEKAMAH        CLEAR     37  36  96 SE5       30.41S WCI  33
WAYNE          CLEAR     37  33  85 S6        30.38S WCI  32
$$

NEZ050>053-065>068-078-088>093-181100-
SOUTHEAST NEBRASKA

CITY           SKY/WX    TMP DP  RH WIND       PRES   REMARKS
LINCOLN        CLEAR     43  38  82 S5        30.43F
OMAHA EPPLEY   CLEAR     43  37  79 S7        30.43S
BEATRICE       CLEAR     42  40  92 CALM      30.44S FOG
FALLS CITY     CLEAR     40  37  89 SE6       30.45F
NEBRASKA CITY  PTCLDY    41  37  87 S7        30.44S
PLATTSMOUTH    PTCLDY    45  41  87 SE7       30.43S
$$

NEZ044-045-051>053-067-181100-
OMAHA AREA

CITY           SKY/WX    TMP DP  RH WIND       PRES   REMARKS
OMAHA EPPLEY   CLEAR     43  37  79 S7        30.43S
BLAIR          CLEAR     43  39  85 S5        30.41S
FREMONT        CLEAR     44  39  83 CALM      30.42S
MILLARD        CLEAR     41  40  95 CALM      30.43S
OFFUTT AFB     CLEAR     41  41  99 E3        30.42F
PLATTSMOUTH    PTCLDY    45  41  87 SE7       30.43S
WAHOO            N/A     38  38  97 CALM      30.41F FOG
$$


 

View Past Reports for Omaha, NE.

Products Courtesy of NOAA-NWS
NWS Information Parsing Script by Ken True at Saratoga Weather - Script by SE Lincoln Weather.